DW6366 Weather Reports


time (UTC)temp
C
wind
direction
speed
KPH
gust
KPH
rain 1hr
cm
rain 24hr
cm
rain mn
cm
humidity
%
barometer
mb
20260506033327 10 5 1.6 6.4 0.00 0.00 0.00 86 1008.8
20260506032353 10 355 1.6 8.0 0.00 0.00 0.00 86 1008.8
20260506031344 10 5 3.2 11.3 0.00 0.00 0.00 86 1008.8
20260506030343 9 5 1.6 8.0 0.00 0.00 0.00 86 1008.9
20260506025352 9 10 3.2 8.0 0.00 0.00 0.00 86 1009.0
20260506024334 9 10 1.6 8.0 0.00 0.00 0.00 86 1009.1
20260506023324 9 354 3.2 11.3 0.00 0.00 0.00 86 1009.0
20260506022323 9 338 3.2 9.7 0.00 0.00 0.00 86 1009.1
20260506021328 9 327 1.6 9.7 0.00 0.00 0.00 86 1009.1
20260506020322 9 343 1.6 11.3 0.00 0.00 0.00 86 1009.2
20260506015354 9 325 3.2 9.7 0.00 0.00 0.00 85 1009.2
20260506014329 9 37 1.6 4.8 0.00 0.00 0.00 84 1009.1
20260506013324 9 334 1.6 4.8 0.00 0.00 0.00 84 1009.2
20260506012331 9 8 1.6 12.9 0.00 0.00 0.00 83 1009.2
20260506011348 9 3 1.6 12.9 0.00 0.00 0.00 83 1009.3
20260506010321 9 332 1.6 12.9 0.00 0.00 0.00 83 1009.4
20260506005334 9 7 3.2 8.0 0.00 0.00 0.00 83 1009.4
20260506004322 9 327 1.6 11.3 0.00 0.00 0.00 82 1009.7
20260506003343 9 340 3.2 11.3 0.00 0.00 0.00 82 1009.7
20260506002341 9 358 1.6 9.7 0.00 0.00 0.00 82 1009.8
20260506001353 9 337 3.2 11.3 0.00 0.00 0.00 82 1009.8
20260506000338 9 44 1.6 4.8 0.00 0.00 0.00 82 1009.9
20260505235322 9 22 1.6 4.8 0.00 0.00 0.00 82 1009.9
20260505234321 9 344 0.0 8.0 0.00 0.00 0.00 82 1010.0
20260505233332 9 11 1.6 4.8 0.00 0.00 0.00 81 1010.0
20260505232325 9 347 1.6 8.0 0.00 0.00 0.00 81 1010.0
20260505231336 9 22 1.6 6.4 0.00 0.00 0.00 80 1010.1
20260505230325 9 344 1.6 8.0 0.00 0.00 0.00 80 1010.1
20260505225339 9 5 4.8 14.5 0.00 0.00 0.00 80 1010.2
20260505224323 9 14 1.6 4.8 0.00 0.00 0.00 79 1010.3
20260505223319 9 11 1.6 6.4 0.00 0.00 0.00 79 1010.3
20260505222336 10 350 0.0 8.0 0.00 0.00 0.00 79 1010.3
20260505221339 10 358 1.6 9.7 0.00 0.00 0.00 79 1010.3
20260505220406 10 350 3.2 12.9 0.00 0.00 0.00 78 1010.3
20260505215331 10 347 4.8 14.5 0.00 0.00 0.00 78 1010.4
20260505214320 10 355 3.2 12.9 0.00 0.00 0.00 78 1010.4
20260505213336 10 9 4.8 11.3 0.00 0.00 0.00 79 1010.5
20260505212327 10 334 3.2 12.9 0.00 0.00 0.00 79 1010.5
20260505211323 10 15 3.2 8.0 0.00 0.00 0.00 79 1010.6
20260505210328 10 27 4.8 12.9 0.00 0.00 0.00 79 1010.6
20260505205338 10 328 4.8 11.3 0.00 0.00 0.00 79 1010.7
20260505204337 11 324 3.2 8.0 0.00 0.00 0.00 79 1010.7
20260505203350 11 342 4.8 12.9 0.00 0.00 0.00 78 1010.7
20260505202409 11 356 3.2 11.3 0.00 0.00 0.00 78 1010.7
20260505201350 11 358 3.2 14.5 0.00 0.00 0.00 78 1010.7
20260505200348 11 334 3.2 11.3 0.00 0.00 0.00 77 1010.7
20260505195326 11 1 3.2 9.7 0.00 0.00 0.00 76 1010.6
20260505194337 11 12 1.6 9.7 0.00 0.00 0.00 76 1010.5
20260505193331 11 29 1.6 17.7 0.00 0.00 0.00 75 1010.4
20260505192343 11 248 4.8 14.5 0.00 0.00 0.00 75 1010.3
20260505191354 12 55 3.2 16.1 0.00 0.00 0.00 75 1010.1
20260505190340 12 352 4.8 12.9 0.00 0.00 0.00 74 1010.0
20260505185348 12 276 3.2 14.5 0.00 0.00 0.00 73 1009.9
20260505184329 12 281 3.2 14.5 0.00 0.00 0.00 72 1009.9
20260505183326 12 2 4.8 14.5 0.00 0.00 0.00 72 1009.7
20260505182326 13 340 4.8 14.5 0.00 0.00 0.00 71 1009.7
20260505181334 13 36 4.8 14.5 0.00 0.00 0.00 71 1009.7
20260505180336 13 332 6.4 16.1 0.00 0.00 0.00 70 1009.7
20260505175349 13 70 6.4 14.5 0.00 0.00 0.00 70 1009.5
20260505174332 13 51 4.8 16.1 0.00 0.00 0.00 70 1009.6
20260505173323 13 336 4.8 16.1 0.00 0.00 0.00 70 1009.7
20260505172352 13 57 3.2 12.9 0.00 0.00 0.00 70 1009.7
20260505171331 13 56 6.4 12.9 0.00 0.00 0.00 69 1009.7
20260505170327 13 343 8.0 19.3 0.00 0.00 0.00 68 1009.8
20260505165323 14 353 4.8 11.3 0.00 0.89 0.00 68 1009.9
20260505164353 14 25 3.2 22.5 0.00 0.89 0.00 68 1009.9
20260505163329 15 346 4.8 11.3 0.00 0.89 0.00 67 1009.8
20260505162321 15 331 3.2 14.5 0.00 0.89 0.00 67 1009.9
20260505161335 15 5 4.8 12.9 0.00 0.89 0.00 66 1010.0
20260505160325 14 5 4.8 16.1 0.00 0.89 0.00 67 1010.0
20260505153347 16 290 4.8 12.9 0.00 1.70 0.00 65 1009.9
20260505152351 15 47 3.2 11.3 0.00 1.70 0.00 67 1010.1
20260505151346 15 296 3.2 11.3 0.00 1.70 0.00 68 1010.1
20260505150320 15 350 3.2 8.0 0.00 1.70 0.00 66 1010.1
20260505140325 15 358 3.2 12.9 0.00 1.80 0.00 68 1010.3
20260505124323 16 96 1.6 11.3 0.00 1.80 0.00 68 1010.7
20260505123320 16 29 3.2 12.9 0.00 1.80 0.00 69 1010.7
20260505122339 15 46 3.2 12.9 0.00 1.80 0.00 70 1010.9
20260505121337 16 102 12.9 29.0 0.00 1.80 0.00 71 1010.8
20260505115324 15 71 12.9 27.4 0.00 1.80 0.00 72 1010.7
20260505114320 15 345 4.8 12.9 0.00 1.80 0.00 74 1011.0
20260505113327 15 335 4.8 12.9 0.00 1.80 0.00 74 1010.9
20260505112321 15 127 3.2 16.1 0.00 1.80 0.00 72 1011.0
20260505111328 15 19 3.2 12.9 0.00 1.80 0.00 73 1011.1
20260505110335 15 302 6.4 14.5 0.00 1.80 0.00 73 1011.1
20260505101335 13 68 9.7 20.9 0.00 1.80 0.00 78 1011.6
20260505100323 13 79 9.7 24.1 0.00 1.80 0.00 83 1011.7
20260505095325 12 360 3.2 14.5 0.00 1.80 0.00 87 1011.8
20260505094319 11 17 3.2 9.7 0.00 1.80 0.00 89 1011.8
20260505093324 11 18 3.2 12.9 0.00 1.80 0.00 89 1011.9
20260505092345 11 156 1.6 11.3 0.00 1.80 0.00 90 1011.9
20260505091320 10 360 3.2 8.0 0.00 1.80 0.00 90 1012.0
20260505090357 10 17 1.6 14.5 0.00 1.80 0.00 90 1012.0
20260505085335 10 64 3.2 14.5 0.00 1.80 0.00 91 1012.0
20260505084326 10 15 4.8 14.5 0.00 1.80 0.00 91 1011.9
20260505083320 10 354 3.2 11.3 0.00 1.80 0.00 91 1011.9
20260505082328 10 83 3.2 11.3 0.00 1.80 0.00 91 1011.9
20260505081339 10 21 1.6 11.3 0.00 1.80 0.00 91 1011.8
20260505080328 10 316 3.2 14.5 0.00 1.80 0.00 91 1011.8
20260505075337 10 31 3.2 8.0 0.00 1.80 0.00 92 1011.7
20260505074328 10 15 3.2 16.1 0.00 1.80 0.00 92 1011.8
20260505073345 10 17 3.2 8.0 0.00 1.80 0.00 92 1011.8
20260505072322 10 14 1.6 11.3 0.00 1.80 0.00 91 1011.7
20260505071319 10 39 1.6 9.7 0.00 1.80 0.00 91 1011.8
20260505070348 10 20 3.2 11.3 0.00 1.80 0.00 91 1011.8
20260505065324 10 340 3.2 12.9 0.00 1.80 0.00 91 1011.9
20260505064326 10 83 1.6 6.4 0.00 1.80 0.00 91 1012.0
20260505063345 10 288 4.8 12.9 0.00 1.80 0.00 91 1012.0
20260505062400 10 358 3.2 12.9 0.00 1.80 0.00 91 1012.0
20260505061321 10 360 1.6 9.7 0.00 1.80 0.00 91 1012.1
20260505060345 10 17 1.6 11.3 0.00 1.80 0.00 90 1012.2
20260505055333 10 27 3.2 8.0 0.00 1.80 0.00 90 1012.3
20260505054325 10 5 1.6 8.0 0.00 1.80 0.00 90 1012.2
20260505053336 10 345 3.2 9.7 0.00 1.80 0.00 90 1012.2
20260505052326 10 10 0.0 8.0 0.00 1.80 0.00 90 1012.2
20260505051331 10 347 1.6 6.4 0.00 1.80 0.00 90 1012.1
20260505050340 10 13 3.2 11.3 0.00 1.80 0.00 90 1012.0
20260505041332 10 10 3.2 11.3 0.00 1.80 0.00 89 1011.9
20260505040336 10 203 1.6 6.4 0.00 1.80 0.00 89 1011.9
20260505035355 10 9 3.2 12.9 0.00 1.80 0.00 89 1011.9
20260505034402 10 22 3.2 11.3 0.00 1.80 0.00 89 1011.9